Volver al catálogo

STARLINK-11564

ActivoComunicacionesVLEO
NORAD 62913·PAYLOAD·🇺🇸 United States

Lanzado Feb 8, 2025 desde Cape Canaveral Space Force Station

Loading…

Próximos Pases (próximas 24 horas)

TLE

ActualizadoSource: CelesTrak SupGP

Época: Sep 14, 2026, 21:12 UTC

1 62913C 25027G   26257.88381944 -.00045374  00000+0 -35255-3 0  2578
2 62913  43.0003 287.4446 0001565 268.4963 155.6385 15.70852156    17

Sigue STARLINK-11564 en tiempo real con AllMySat

Download on the App Store